Regional Weather Roundup
Issued by NWS

Home | Current Version | Previous Version | Graphics & Text | Print | Product List | Glossary On
Versions: 1 2 3 4 5 6 7 8 9 10 11 12 13 14 15 16 17 18 19 20 21 22 23 24 25 26 27 28 29 30 31 32 33 34 35 36 37 38 39 40 41 42 43 44 45 46 47 48 49 50
000
ASUS43 KFSD 022002
RWRSD

WEATHER ROUNDUP FOR SOUTH DAKOTA
NATIONAL WEATHER SERVICE SIOUX FALLS SD
300 PM CDT MON MAY 02 2016

NOTE: "FAIR" INDICATES FEW OR NO CLOUDS BELOW 12,000 FEET WITH NO
SIGNIFICANT WEATHER AND/OR OBSTRUCTIONS TO VISIBILITY.


SDZ001>005-009-010-012>017-022100-
NORTHWEST AND NORTH CENTRAL SOUTH DAKOTA

CITY           SKY/WX    TMP DP  RH WIND       PRES   REMARKS
BUFFALO          N/A     65  35  33 NW21      29.97S
FAITH            N/A     61  36  39 W13G21    30.00F
MOBRIDGE       CLOUDY    56  48  74 S9        29.99F
$$

SDZ012>016-024>037-041>051-057-063-072>074-022100-
SOUTHWEST AND SOUTH CENTRAL SOUTH DAKOTA

CITY           SKY/WX    TMP DP  RH WIND       PRES   REMARKS
RAPID CTY ARPT MOSUNNY   66  33  29 N23G35    30.05F
PIERRE         CLOUDY    56  42  59 N18G29    30.04R
CUSTER         CLOUDY    55  23  28 N10G20    30.08F
ELLSWORTH AFB  MOSUNNY   63  32  31 N21G31    30.05
PHILIP         PTSUNNY   65  32  29 NW9       30.03F
PINE RIDGE     MOSUNNY   60  29  30 N7        30.08F
WINNER         MOCLDY    64  36  35 NW10      30.03F
$$

SDZ004>011-016>023-039-040-022100-
NORTHEAST SOUTH DAKOTA

CITY           SKY/WX    TMP DP  RH WIND       PRES   REMARKS
ABERDEEN       CLOUDY    57  42  57 NW14      30.03R
WATERTOWN      PTSUNNY   64  32  30 S6        30.02F
BROOKINGS      PTSUNNY   62  34  35 VRB6      30.03F
SISSETON         N/A     66  28  24 SW8       29.99F
$$

SDZ017-020-022-023-036>040-048>070-022100-
SOUTHEAST SOUTH DAKOTA

CITY           SKY/WX    TMP DP  RH WIND       PRES   REMARKS
SIOUX FALLS    PTSUNNY   61  36  39 VRB3      30.05F
HURON          PTSUNNY   64  35  34 S10       30.01F
MITCHELL       MOSUNNY   63  39  41 S8        30.04F
YANKTON        MOSUNNY   61  36  39 CALM      30.06F
$$

ABBREVIATIONS USED IN REMARKS
   TC - TEMPERATURE IN CELSIUS
  WCI - WIND CHILL INDEX
   HX - HEAT INDEX
  VSB - VISIBILITY




USA.gov is the U.S. government's official web portal to all federal, state and local government web resources and services.